owner,sensor,date,latitude,longitude,vertical_datum,direction_of_sea_water_velocity,sea_water_speed,upward_sea_water_velocity,qcFlag 
TABS,ioos:station:wmo:42050:1,2009-11-01T00:00:00Z,28.8425,-94.2433,2.0,305.726453,12.72453535,-99999.0,'11111222,11111222,99999999' 
TABS,ioos:station:wmo:42050:1,2009-11-01T00:30:00Z,28.8425,-94.2433,2.0,299.2798272,14.35377302,-99999.0,'11111222,11111222,99999999' 
TABS,ioos:station:wmo:42050:1,2009-11-01T01:00:00Z,28.8425,-94.2433,2.0,290.0802335,13.66034407,-99999.0,'11111222,11111222,99999999' 
TABS,ioos:station:wmo:42050:1,2009-11-01T01:30:00Z,28.8425,-94.2433,2.0,304.3075441,9.527528536,-99999.0,'11133222,11111222,99999999' 
TABS,ioos:station:wmo:42050:1,2009-11-01T02:00:00Z,28.8425,-94.2433,2.0,295.7452829,8.748394138,-99999.0,'11133222,11111222,99999999' 
TABS,ioos:station:wmo:42050:1,2009-11-01T02:30:00Z,28.8425,-94.2433,2.0,300.6024964,4.891237062,-99999.0,'11133222,11111222,99999999' 
TABS,ioos:station:wmo:42050:1,2009-11-01T03:00:00Z,28.8425,-94.2433,2.0,318.1048343,4.178061752,-99999.0,'11133222,11111222,99999999' 
TABS,ioos:station:wmo:42050:1,2009-11-01T03:30:00Z,28.8425,-94.2433,2.0,305.5261801,5.627548312,-99999.0,'11133222,11111222,99999999' 
TABS,ioos:station:wmo:42050:1,2009-11-01T04:00:00Z,28.8425,-94.2433,2.0,312.4865113,1.450965196,-99999.0,'11133222,11111222,99999999' 
TABS,ioos:station:wmo:42050:1,2009-11-01T04:30:00Z,28.8425,-94.2433,2.0,337.7126893,4.376996687,-99999.0,'11133222,11111222,99999999' 
TABS,ioos:station:wmo:42050:1,2009-11-01T05:00:00Z,28.8425,-94.2433,2.0,294.6919213,1.915097909,-99999.0,'11133222,11111222,99999999' 
TABS,ioos:station:wmo:42050:1,2009-11-01T05:30:00Z,28.8425,-94.2433,2.0,9.526575715,4.410827587,-99999.0,'11133222,11111222,99999999' 
TABS,ioos:station:wmo:42050:1,2009-11-01T06:00:00Z,28.8425,-94.2433,2.0,333.3699644,3.926537915,-99999.0,'11133222,11111222,99999999' 
TABS,ioos:station:wmo:42050:1,2009-11-01T06:30:00Z,28.8425,-94.2433,2.0,312.571048,5.838878317,-99999.0,'11133222,11111222,99999999' 
TABS,ioos:station:wmo:42050:1,2009-11-01T07:00:00Z,28.8425,-94.2433,2.0,310.7661315,6.799713229,-99999.0,'11133222,11111222,99999999' 
TABS,ioos:station:wmo:42050:1,2009-11-01T07:30:00Z,28.8425,-94.2433,2.0,305.9220961,7.977092202,-99999.0,'11133222,11111222,99999999' 
TABS,ioos:station:wmo:42050:1,2009-11-01T08:00:00Z,28.8425,-94.2433,2.0,303.4645707,14.0728533,-99999.0,'11111222,11111222,99999999' 
TABS,ioos:station:wmo:42050:1,2009-11-01T08:30:00Z,28.8425,-94.2433,2.0,290.4212672,15.8778462,-99999.0,'11111222,11111222,99999999' 
TABS,ioos:station:wmo:42050:1,2009-11-01T09:00:00Z,28.8425,-94.2433,2.0,289.3215398,17.37879455,-99999.0,'11111222,11111222,99999999' 
TABS,ioos:station:wmo:42050:1,2009-11-01T09:30:00Z,28.8425,-94.2433,2.0,296.3275996,15.08464451,-99999.0,'11111222,11111222,99999999' 
TABS,ioos:station:wmo:42050:1,2009-11-01T10:00:00Z,28.8425,-94.2433,2.0,297.2736019,18.09117188,-99999.0,'11111222,11111222,99999999' 
TABS,ioos:station:wmo:42050:1,2009-11-01T10:30:00Z,28.8425,-94.2433,2.0,296.6239945,8.747502501,-99999.0,'11133222,11111222,99999999' 
TABS,ioos:station:wmo:42050:1,2009-11-01T11:00:00Z,28.8425,-94.2433,2.0,294.6175348,16.97261913,-99999.0,'11111222,11111222,99999999' 
TABS,ioos:station:wmo:42050:1,2009-11-01T11:30:00Z,28.8425,-94.2433,2.0,299.3842197,16.73261785,-99999.0,'11111222,11111222,99999999' 
TABS,ioos:station:wmo:42050:1,2009-11-01T12:00:00Z,28.8425,-94.2433,2.0,305.3516355,24.30053497,-99999.0,'11111222,11111222,99999999' 
TABS,ioos:station:wmo:42050:1,2009-11-01T12:30:00Z,28.8425,-94.2433,2.0,298.0139567,19.46001028,-99999.0,'11111222,11111222,99999999' 
TABS,ioos:station:wmo:42050:1,2009-11-01T13:00:00Z,28.8425,-94.2433,2.0,312.747127,13.84878695,-99999.0,'11111222,11111222,99999999' 
TABS,ioos:station:wmo:42050:1,2009-11-01T13:30:00Z,28.8425,-94.2433,2.0,318.7815975,14.79660096,-99999.0,'11111222,11111222,99999999' 
TABS,ioos:station:wmo:42050:1,2009-11-01T14:00:00Z,28.8425,-94.2433,2.0,314.9756086,16.39780778,-99999.0,'11111222,11111222,99999999' 
TABS,ioos:station:wmo:42050:1,2009-11-01T14:30:00Z,28.8425,-94.2433,2.0,316.5099957,14.22485501,-99999.0,'11111222,11111222,99999999' 
TABS,ioos:station:wmo:42050:1,2009-11-01T15:00:00Z,28.8425,-94.2433,2.0,312.51546,15.00477257,-99999.0,'11111222,11111222,99999999' 
TABS,ioos:station:wmo:42050:1,2009-11-01T15:30:00Z,28.8425,-94.2433,2.0,321.8991867,17.77810451,-99999.0,'11111222,11111222,99999999' 
TABS,ioos:station:wmo:42050:1,2009-11-01T16:00:00Z,28.8425,-94.2433,2.0,321.2865775,16.59659302,-99999.0,'11111222,11111222,99999999' 
TABS,ioos:station:wmo:42050:1,2009-11-01T16:30:00Z,28.8425,-94.2433,2.0,307.2644622,17.44041284,-99999.0,'11111222,11111222,99999999' 
TABS,ioos:station:wmo:42050:1,2009-11-01T17:00:00Z,28.8425,-94.2433,2.0,306.0297975,20.18017096,-99999.0,'11111222,11111222,99999999' 
TABS,ioos:station:wmo:42050:1,2009-11-01T17:30:00Z,28.8425,-94.2433,2.0,298.8779132,19.17424575,-99999.0,'11111222,11111222,99999999' 
TABS,ioos:station:wmo:42050:1,2009-11-01T18:00:00Z,28.8425,-94.2433,2.0,320.4279168,15.10079468,-99999.0,'11111222,11111222,99999999' 
TABS,ioos:station:wmo:42050:1,2009-11-01T18:30:00Z,28.8425,-94.2433,2.0,323.6216463,17.0286259,-99999.0,'11111222,11111222,99999999' 
TABS,ioos:station:wmo:42050:1,2009-11-01T19:00:00Z,28.8425,-94.2433,2.0,309.4000687,17.17273711,-99999.0,'11111222,11111222,99999999' 
TABS,ioos:station:wmo:42050:1,2009-11-01T19:30:00Z,28.8425,-94.2433,2.0,310.1677496,13.17781848,-99999.0,'11111222,11111222,99999999' 
TABS,ioos:station:wmo:42050:1,2009-11-01T20:00:00Z,28.8425,-94.2433,2.0,300.4459124,13.08416218,-99999.0,'11111222,11111222,99999999' 
TABS,ioos:station:wmo:42050:1,2009-11-01T20:30:00Z,28.8425,-94.2433,2.0,301.0803822,13.5209763,-99999.0,'11111222,11111222,99999999' 
TABS,ioos:station:wmo:42050:1,2009-11-01T21:00:00Z,28.8425,-94.2433,2.0,304.8975045,14.35050522,-99999.0,'11111222,11111222,99999999' 
TABS,ioos:station:wmo:42050:1,2009-11-01T21:30:00Z,28.8425,-94.2433,2.0,288.4661805,11.74470093,-99999.0,'11111222,11111222,99999999' 
TABS,ioos:station:wmo:42050:1,2009-11-01T22:00:00Z,28.8425,-94.2433,2.0,288.9695044,13.22838237,-99999.0,'11111222,11111222,99999999' 
TABS,ioos:station:wmo:42050:1,2009-11-01T22:30:00Z,28.8425,-94.2433,2.0,284.559237,15.15668169,-99999.0,'11111222,11111222,99999999' 
TABS,ioos:station:wmo:42050:1,2009-11-01T23:00:00Z,28.8425,-94.2433,2.0,283.3948028,13.85692967,-99999.0,'11111222,11111222,99999999' 
TABS,ioos:station:wmo:42050:1,2009-11-01T23:30:00Z,28.8425,-94.2433,2.0,278.5381766,12.12435978,-99999.0,'11111222,11111222,99999999' 
TABS,ioos:station:wmo:42050:1,2009-11-02T00:00:00Z,28.8425,-94.2433,2.0,288.0557174,13.84159312,-99999.0,'11111222,11111222,99999999' 
TABS,ioos:station:wmo:42050:1,2009-11-02T00:30:00Z,28.8425,-94.2433,2.0,280.4177628,15.48524782,-99999.0,'11111222,11111222,99999999' 
TABS,ioos:station:wmo:42050:1,2009-11-02T01:00:00Z,28.8425,-94.2433,2.0,291.6305534,13.04886968,-99999.0,'11111222,11111222,99999999' 
TABS,ioos:station:wmo:42050:1,2009-11-02T01:30:00Z,28.8425,-94.2433,2.0,299.0437468,9.928484275,-99999.0,'11133222,11111222,99999999' 
TABS,ioos:station:wmo:42050:1,2009-11-02T02:00:00Z,28.8425,-94.2433,2.0,294.2357694,10.23175938,-99999.0,'11111222,11111222,99999999' 
TABS,ioos:station:wmo:42050:1,2009-11-02T02:30:00Z,28.8425,-94.2433,2.0,293.6171661,10.4338871,-99999.0,'11111222,11111222,99999999' 
TABS,ioos:station:wmo:42050:1,2009-11-02T03:00:00Z,28.8425,-94.2433,2.0,301.1108411,10.04470507,-99999.0,'11111222,11111222,99999999' 
TABS,ioos:station:wmo:42050:1,2009-11-02T03:30:00Z,28.8425,-94.2433,2.0,291.5867067,7.420437992,-99999.0,'11133222,11111222,99999999' 
TABS,ioos:station:wmo:42050:1,2009-11-02T04:00:00Z,28.8425,-94.2433,2.0,289.2012156,9.699572156,-99999.0,'11133222,11111222,99999999' 
TABS,ioos:station:wmo:42050:1,2009-11-02T04:30:00Z,28.8425,-94.2433,2.0,323.0879159,8.092002224,-99999.0,'11133222,11111222,99999999' 
TABS,ioos:station:wmo:42050:1,2009-11-02T05:00:00Z,28.8425,-94.2433,2.0,275.0576576,5.672080747,-99999.0,'11133222,11111222,99999999' 
TABS,ioos:station:wmo:42050:1,2009-11-02T05:30:00Z,28.8425,-94.2433,2.0,294.9827778,5.019651382,-99999.0,'11133222,11111222,99999999' 
TABS,ioos:station:wmo:42050:1,2009-11-02T06:00:00Z,28.8425,-94.2433,2.0,300.0972076,6.461091239,-99999.0,'11133222,11111222,99999999' 
TABS,ioos:station:wmo:42050:1,2009-11-02T06:30:00Z,28.8425,-94.2433,2.0,339.0943034,5.941119423,-99999.0,'11133222,11111222,99999999' 
TABS,ioos:station:wmo:42050:1,2009-11-02T07:00:00Z,28.8425,-94.2433,2.0,273.8985185,5.442591295,-99999.0,'11133222,11111222,99999999' 
TABS,ioos:station:wmo:42050:1,2009-11-02T07:30:00Z,28.8425,-94.2433,2.0,291.4192773,5.285007096,-99999.0,'11133222,11111222,99999999' 
TABS,ioos:station:wmo:42050:1,2009-11-02T08:00:00Z,28.8425,-94.2433,2.0,296.6608231,10.74208546,-99999.0,'11111222,11111222,99999999' 
TABS,ioos:station:wmo:42050:1,2009-11-02T08:30:00Z,28.8425,-94.2433,2.0,295.1424762,11.88613057,-99999.0,'11111222,11111222,99999999' 
TABS,ioos:station:wmo:42050:1,2009-11-02T09:00:00Z,28.8425,-94.2433,2.0,307.2605961,12.91629978,-99999.0,'11111222,11111222,99999999' 
TABS,ioos:station:wmo:42050:1,2009-11-02T09:30:00Z,28.8425,-94.2433,2.0,303.7683452,12.23392415,-99999.0,'11111222,11111222,99999999' 
TABS,ioos:station:wmo:42050:1,2009-11-02T10:00:00Z,28.8425,-94.2433,2.0,291.3096817,13.62125545,-99999.0,'11111222,11111222,99999999' 
TABS,ioos:station:wmo:42050:1,2009-11-02T10:30:00Z,28.8425,-94.2433,2.0,301.068659,15.03702098,-99999.0,'11111222,11111222,99999999' 
TABS,ioos:station:wmo:42050:1,2009-11-02T11:00:00Z,28.8425,-94.2433,2.0,312.628794,15.20875077,-99999.0,'11111222,11111222,99999999' 
TABS,ioos:station:wmo:42050:1,2009-11-02T11:30:00Z,28.8425,-94.2433,2.0,292.1624625,27.72857732,-99999.0,'11111222,11111222,99999999' 
TABS,ioos:station:wmo:42050:1,2009-11-02T12:00:00Z,28.8425,-94.2433,2.0,290.4070777,31.43267726,-99999.0,'11111222,11111222,99999999' 
TABS,ioos:station:wmo:42050:1,2009-11-02T12:30:00Z,28.8425,-94.2433,2.0,285.6750663,31.97926985,-99999.0,'11111222,11111222,99999999' 
TABS,ioos:station:wmo:42050:1,2009-11-02T13:00:00Z,28.8425,-94.2433,2.0,281.1785174,32.39454892,-99999.0,'11111222,11111222,99999999' 
TABS,ioos:station:wmo:42050:1,2009-11-02T13:30:00Z,28.8425,-94.2433,2.0,281.6389085,30.4357635,-99999.0,'11111222,11111222,99999999' 
TABS,ioos:station:wmo:42050:1,2009-11-02T14:00:00Z,28.8425,-94.2433,2.0,282.8929042,27.33921177,-99999.0,'11111222,11111222,99999999' 
TABS,ioos:station:wmo:42050:1,2009-11-02T14:30:00Z,28.8425,-94.2433,2.0,288.7619632,24.40685559,-99999.0,'11111222,11111222,99999999' 
TABS,ioos:station:wmo:42050:1,2009-11-02T15:00:00Z,28.8425,-94.2433,2.0,280.7140997,26.19665055,-99999.0,'11111222,11111222,99999999' 
TABS,ioos:station:wmo:42050:1,2009-11-02T15:30:00Z,28.8425,-94.2433,2.0,274.6960699,25.89692067,-99999.0,'11111222,11111222,99999999' 
TABS,ioos:station:wmo:42050:1,2009-11-02T16:00:00Z,28.8425,-94.2433,2.0,272.3013558,22.16787315,-99999.0,'11111222,11111222,99999999' 
TABS,ioos:station:wmo:42050:1,2009-11-02T16:30:00Z,28.8425,-94.2433,2.0,271.8049377,25.72275646,-99999.0,'11111222,11111222,99999999' 
TABS,ioos:station:wmo:42050:1,2009-11-02T17:00:00Z,28.8425,-94.2433,2.0,272.208053,26.21946033,-99999.0,'11111222,11111222,99999999' 
TABS,ioos:station:wmo:42050:1,2009-11-02T17:30:00Z,28.8425,-94.2433,2.0,284.7952623,22.1648483,-99999.0,'11111222,11111222,99999999' 
TABS,ioos:station:wmo:42050:1,2009-11-02T18:00:00Z,28.8425,-94.2433,2.0,273.8376741,19.72421862,-99999.0,'11111222,11111222,99999999' 
TABS,ioos:station:wmo:42050:1,2009-11-02T18:30:00Z,28.8425,-94.2433,2.0,281.1459783,25.29712434,-99999.0,'11111222,11111222,99999999' 
TABS,ioos:station:wmo:42050:1,2009-11-02T19:00:00Z,28.8425,-94.2433,2.0,280.8482753,25.2919592,-99999.0,'11111222,11111222,99999999' 
TABS,ioos:station:wmo:42050:1,2009-11-02T19:30:00Z,28.8425,-94.2433,2.0,280.0014494,23.95399132,-99999.0,'11111222,11111222,99999999' 
TABS,ioos:station:wmo:42050:1,2009-11-02T20:00:00Z,28.8425,-94.2433,2.0,274.0636457,23.7095951,-99999.0,'11111222,11111222,99999999' 
TABS,ioos:station:wmo:42050:1,2009-11-02T20:30:00Z,28.8425,-94.2433,2.0,280.5972607,23.16507069,-99999.0,'11111222,11111222,99999999' 
TABS,ioos:station:wmo:42050:1,2009-11-02T21:00:00Z,28.8425,-94.2433,2.0,265.626658,18.75459677,-99999.0,'11111222,11111222,99999999' 
TABS,ioos:station:wmo:42050:1,2009-11-02T21:30:00Z,28.8425,-94.2433,2.0,331.2331814,17.8077792,-99999.0,'11111222,11111222,99999999' 
TABS,ioos:station:wmo:42050:1,2009-11-02T22:00:00Z,28.8425,-94.2433,2.0,334.2782204,15.80623927,-99999.0,'11111222,11111222,99999999' 
TABS,ioos:station:wmo:42050:1,2009-11-02T22:30:00Z,28.8425,-94.2433,2.0,324.0004326,12.24941223,-99999.0,'11111222,11111222,99999999' 
TABS,ioos:station:wmo:42050:1,2009-11-02T23:00:00Z,28.8425,-94.2433,2.0,317.1048879,12.70820994,-99999.0,'11111222,11111222,99999999' 
TABS,ioos:station:wmo:42050:1,2009-11-02T23:30:00Z,28.8425,-94.2433,2.0,297.6560359,12.45268244,-99999.0,'11111222,11111222,99999999' 
TABS,ioos:station:wmo:42050:1,2009-11-03T00:00:00Z,28.8425,-94.2433,2.0,293.7604248,21.84124767,-99999.0,'11111222,11111222,99999999' 
TABS,ioos:station:wmo:42050:1,2009-11-03T00:30:00Z,28.8425,-94.2433,2.0,299.6695824,15.03054224,-99999.0,'11111222,11111222,99999999' 
TABS,ioos:station:wmo:42050:1,2009-11-03T01:00:00Z,28.8425,-94.2433,2.0,303.8767842,16.20010494,-99999.0,'11111222,11111222,99999999' 
TABS,ioos:station:wmo:42050:1,2009-11-03T01:30:00Z,28.8425,-94.2433,2.0,293.389275,15.41677333,-99999.0,'11111222,11111222,99999999' 
TABS,ioos:station:wmo:42050:1,2009-11-03T02:00:00Z,28.8425,-94.2433,2.0,299.0617747,16.32537289,-99999.0,'11111222,11111222,99999999' 
TABS,ioos:station:wmo:42050:1,2009-11-03T02:30:00Z,28.8425,-94.2433,2.0,299.7997197,14.34710424,-99999.0,'11111222,11111222,99999999' 
TABS,ioos:station:wmo:42050:1,2009-11-03T03:00:00Z,28.8425,-94.2433,2.0,305.8069187,14.11843122,-99999.0,'11111222,11111222,99999999' 
TABS,ioos:station:wmo:42050:1,2009-11-03T03:30:00Z,28.8425,-94.2433,2.0,311.0378734,14.53042326,-99999.0,'11111222,11111222,99999999' 
TABS,ioos:station:wmo:42050:1,2009-11-03T04:00:00Z,28.8425,-94.2433,2.0,303.6083765,17.43424504,-99999.0,'11111222,11111222,99999999' 
TABS,ioos:station:wmo:42050:1,2009-11-03T04:30:00Z,28.8425,-94.2433,2.0,301.1610811,15.96318264,-99999.0,'11111222,11111222,99999999' 
TABS,ioos:station:wmo:42050:1,2009-11-03T05:00:00Z,28.8425,-94.2433,2.0,308.2009109,15.58820387,-99999.0,'11111222,11111222,99999999' 
TABS,ioos:station:wmo:42050:1,2009-11-03T05:30:00Z,28.8425,-94.2433,2.0,305.3128185,15.3796814,-99999.0,'11111222,11111222,99999999' 
TABS,ioos:station:wmo:42050:1,2009-11-03T06:00:00Z,28.8425,-94.2433,2.0,299.3807427,19.30267598,-99999.0,'11111222,11111222,99999999' 
TABS,ioos:station:wmo:42050:1,2009-11-03T06:30:00Z,28.8425,-94.2433,2.0,302.0871984,18.63690157,-99999.0,'11111222,11111222,99999999' 
TABS,ioos:station:wmo:42050:1,2009-11-03T07:00:00Z,28.8425,-94.2433,2.0,294.8055905,19.95066415,-99999.0,'11111222,11111222,99999999' 
TABS,ioos:station:wmo:42050:1,2009-11-03T07:30:00Z,28.8425,-94.2433,2.0,284.579805,19.18785553,-99999.0,'11111222,11111222,99999999' 
TABS,ioos:station:wmo:42050:1,2009-11-03T08:00:00Z,28.8425,-94.2433,2.0,292.3732261,25.69408492,-99999.0,'11111222,11111222,99999999' 
TABS,ioos:station:wmo:42050:1,2009-11-03T08:30:00Z,28.8425,-94.2433,2.0,292.4397192,23.68319446,-99999.0,'11111222,11111222,99999999' 
TABS,ioos:station:wmo:42050:1,2009-11-03T09:00:00Z,28.8425,-94.2433,2.0,301.183218,18.38649776,-99999.0,'11111222,11111222,99999999' 
TABS,ioos:station:wmo:42050:1,2009-11-03T09:30:00Z,28.8425,-94.2433,2.0,291.8298951,26.48944318,-99999.0,'11111222,11111222,99999999' 
TABS,ioos:station:wmo:42050:1,2009-11-03T10:00:00Z,28.8425,-94.2433,2.0,292.721671,33.89005311,-99999.0,'11111222,11111222,99999999' 
TABS,ioos:station:wmo:42050:1,2009-11-03T10:30:00Z,28.8425,-94.2433,2.0,282.4356672,34.55056005,-99999.0,'11111222,11111222,99999999' 
TABS,ioos:station:wmo:42050:1,2009-11-03T11:00:00Z,28.8425,-94.2433,2.0,288.9505354,37.62946319,-99999.0,'11111222,11111222,99999999' 
TABS,ioos:station:wmo:42050:1,2009-11-03T11:30:00Z,28.8425,-94.2433,2.0,282.226215,39.9971124,-99999.0,'11111222,11111222,99999999' 
TABS,ioos:station:wmo:42050:1,2009-11-03T12:00:00Z,28.8425,-94.2433,2.0,288.2765309,36.51179809,-99999.0,'11111222,11111222,99999999' 
TABS,ioos:station:wmo:42050:1,2009-11-03T12:30:00Z,28.8425,-94.2433,2.0,285.6671226,37.84603017,-99999.0,'11111222,11111222,99999999' 
TABS,ioos:station:wmo:42050:1,2009-11-03T13:00:00Z,28.8425,-94.2433,2.0,286.094981,36.39655203,-99999.0,'11111222,11111222,99999999' 
TABS,ioos:station:wmo:42050:1,2009-11-03T13:30:00Z,28.8425,-94.2433,2.0,291.2441898,35.49177369,-99999.0,'11111222,11111222,99999999' 
TABS,ioos:station:wmo:42050:1,2009-11-03T14:00:00Z,28.8425,-94.2433,2.0,290.5497687,30.25513675,-99999.0,'11111222,11111222,99999999' 
TABS,ioos:station:wmo:42050:1,2009-11-03T14:30:00Z,28.8425,-94.2433,2.0,289.0373197,31.30195202,-99999.0,'11111222,11111222,99999999' 
TABS,ioos:station:wmo:42050:1,2009-11-03T15:00:00Z,28.8425,-94.2433,2.0,300.2192738,26.38557181,-99999.0,'11111222,11111222,99999999' 
TABS,ioos:station:wmo:42050:1,2009-11-03T15:30:00Z,28.8425,-94.2433,2.0,292.6141696,29.07538478,-99999.0,'11111222,11111222,99999999' 
TABS,ioos:station:wmo:42050:1,2009-11-03T16:00:00Z,28.8425,-94.2433,2.0,301.0813235,24.30997532,-99999.0,'11111222,11111222,99999999' 
TABS,ioos:station:wmo:42050:1,2009-11-03T16:30:00Z,28.8425,-94.2433,2.0,294.9035885,24.05679322,-99999.0,'11111222,11111222,99999999' 
TABS,ioos:station:wmo:42050:1,2009-11-03T17:00:00Z,28.8425,-94.2433,2.0,314.4090182,26.03705821,-99999.0,'11111222,11111222,99999999' 
TABS,ioos:station:wmo:42050:1,2009-11-03T17:30:00Z,28.8425,-94.2433,2.0,302.0789827,26.53070862,-99999.0,'11111222,11111222,99999999' 
TABS,ioos:station:wmo:42050:1,2009-11-03T18:00:00Z,28.8425,-94.2433,2.0,283.6460172,29.88350883,-99999.0,'11111222,11111222,99999999' 
TABS,ioos:station:wmo:42050:1,2009-11-03T18:30:00Z,28.8425,-94.2433,2.0,297.4477931,24.10319896,-99999.0,'11111222,11111222,99999999' 
TABS,ioos:station:wmo:42050:1,2009-11-03T19:00:00Z,28.8425,-94.2433,2.0,272.8430853,30.44746623,-99999.0,'11111222,11111222,99999999' 
TABS,ioos:station:wmo:42050:1,2009-11-03T19:30:00Z,28.8425,-94.2433,2.0,276.0987081,27.20394457,-99999.0,'11111222,11111222,99999999' 
TABS,ioos:station:wmo:42050:1,2009-11-03T20:00:00Z,28.8425,-94.2433,2.0,281.3146751,25.8422232,-99999.0,'11111222,11111222,99999999' 
TABS,ioos:station:wmo:42050:1,2009-11-03T20:30:00Z,28.8425,-94.2433,2.0,283.243746,23.13526313,-99999.0,'11111222,11111222,99999999' 
TABS,ioos:station:wmo:42050:1,2009-11-03T21:00:00Z,28.8425,-94.2433,2.0,296.1575747,20.73334753,-99999.0,'11111222,11111222,99999999' 
TABS,ioos:station:wmo:42050:1,2009-11-03T21:30:00Z,28.8425,-94.2433,2.0,312.1679749,18.173632,-99999.0,'11111222,11111222,99999999' 
TABS,ioos:station:wmo:42050:1,2009-11-03T22:00:00Z,28.8425,-94.2433,2.0,317.785994,16.87736946,-99999.0,'11111222,11111222,99999999' 
TABS,ioos:station:wmo:42050:1,2009-11-03T22:30:00Z,28.8425,-94.2433,2.0,325.2074505,20.03116073,-99999.0,'11111222,11111222,99999999' 
TABS,ioos:station:wmo:42050:1,2009-11-03T23:00:00Z,28.8425,-94.2433,2.0,321.9943736,17.65346991,-99999.0,'11111222,11111222,99999999' 
TABS,ioos:station:wmo:42050:1,2009-11-03T23:30:00Z,28.8425,-94.2433,2.0,317.9207416,14.29505159,-99999.0,'11111222,11111222,99999999' 
TABS,ioos:station:wmo:42050:1,2009-11-04T00:00:00Z,28.8425,-94.2433,2.0,315.778946,16.13059515,-99999.0,'11111222,11111222,99999999' 
TABS,ioos:station:wmo:42050:1,2009-11-04T00:30:00Z,28.8425,-94.2433,2.0,298.8132047,12.20043032,-99999.0,'11111222,11111222,99999999' 
TABS,ioos:station:wmo:42050:1,2009-11-04T01:00:00Z,28.8425,-94.2433,2.0,284.3074852,14.36554559,-99999.0,'11111222,11111222,99999999' 
TABS,ioos:station:wmo:42050:1,2009-11-04T01:30:00Z,28.8425,-94.2433,2.0,283.0118227,15.32342651,-99999.0,'11111222,11111222,99999999' 
TABS,ioos:station:wmo:42050:1,2009-11-04T02:00:00Z,28.8425,-94.2433,2.0,287.485762,11.44901743,-99999.0,'11111222,11111222,99999999' 
TABS,ioos:station:wmo:42050:1,2009-11-04T02:30:00Z,28.8425,-94.2433,2.0,302.0694923,13.33478159,-99999.0,'11111222,11111222,99999999' 
TABS,ioos:station:wmo:42050:1,2009-11-04T03:00:00Z,28.8425,-94.2433,2.0,299.3813066,12.10727467,-99999.0,'11111222,11111222,99999999' 
TABS,ioos:station:wmo:42050:1,2009-11-04T03:30:00Z,28.8425,-94.2433,2.0,301.8250182,12.09887598,-99999.0,'11111222,11111222,99999999' 
TABS,ioos:station:wmo:42050:1,2009-11-04T04:00:00Z,28.8425,-94.2433,2.0,296.7133967,10.38880648,-99999.0,'11111222,11111222,99999999' 
TABS,ioos:station:wmo:42050:1,2009-11-04T04:30:00Z,28.8425,-94.2433,2.0,308.3026186,9.761050148,-99999.0,'11133222,11111222,99999999' 
TABS,ioos:station:wmo:42050:1,2009-11-04T05:00:00Z,28.8425,-94.2433,2.0,299.5737593,9.117834173,-99999.0,'11133222,11111222,99999999' 
TABS,ioos:station:wmo:42050:1,2009-11-04T05:30:00Z,28.8425,-94.2433,2.0,320.5915726,9.797617057,-99999.0,'11133222,11111222,99999999' 
TABS,ioos:station:wmo:42050:1,2009-11-04T06:00:00Z,28.8425,-94.2433,2.0,305.9232831,7.260991668,-99999.0,'11133222,11111222,99999999' 
TABS,ioos:station:wmo:42050:1,2009-11-04T06:30:00Z,28.8425,-94.2433,2.0,296.7746445,7.347768369,-99999.0,'11133222,11111222,99999999' 
TABS,ioos:station:wmo:42050:1,2009-11-04T07:00:00Z,28.8425,-94.2433,2.0,293.6482259,8.875274644,-99999.0,'11133222,11111222,99999999' 
TABS,ioos:station:wmo:42050:1,2009-11-04T07:30:00Z,28.8425,-94.2433,2.0,291.616607,6.894903915,-99999.0,'11133222,11111222,99999999' 
TABS,ioos:station:wmo:42050:1,2009-11-04T08:00:00Z,28.8425,-94.2433,2.0,286.1042246,8.940833294,-99999.0,'11133222,11111222,99999999' 
TABS,ioos:station:wmo:42050:1,2009-11-04T08:30:00Z,28.8425,-94.2433,2.0,287.1643655,11.69065439,-99999.0,'11111222,11111222,99999999' 
TABS,ioos:station:wmo:42050:1,2009-11-04T09:00:00Z,28.8425,-94.2433,2.0,270.5344527,15.02065245,-99999.0,'11111222,11111222,99999999' 
TABS,ioos:station:wmo:42050:1,2009-11-04T09:30:00Z,28.8425,-94.2433,2.0,274.5046432,15.40758579,-99999.0,'11111222,11111222,99999999' 
TABS,ioos:station:wmo:42050:1,2009-11-04T10:00:00Z,28.8425,-94.2433,2.0,269.1839217,17.56177952,-99999.0,'11111222,11111222,99999999' 
TABS,ioos:station:wmo:42050:1,2009-11-04T10:30:00Z,28.8425,-94.2433,2.0,275.2764626,20.33615991,-99999.0,'11111222,11111222,99999999' 
TABS,ioos:station:wmo:42050:1,2009-11-04T11:00:00Z,28.8425,-94.2433,2.0,276.9640971,19.38298481,-99999.0,'11111222,11111222,99999999' 
TABS,ioos:station:wmo:42050:1,2009-11-04T11:30:00Z,28.8425,-94.2433,2.0,275.6492453,21.23311094,-99999.0,'11111222,11111222,99999999' 
TABS,ioos:station:wmo:42050:1,2009-11-04T12:00:00Z,28.8425,-94.2433,2.0,279.9253832,22.39516019,-99999.0,'11111222,11111222,99999999' 
TABS,ioos:station:wmo:42050:1,2009-11-04T12:30:00Z,28.8425,-94.2433,2.0,279.6847569,18.66600118,-99999.0,'11111222,11111222,99999999' 
TABS,ioos:station:wmo:42050:1,2009-11-04T13:00:00Z,28.8425,-94.2433,2.0,284.7936827,21.10971814,-99999.0,'11111222,11111222,99999999' 
TABS,ioos:station:wmo:42050:1,2009-11-04T13:30:00Z,28.8425,-94.2433,2.0,283.604918,22.53219918,-99999.0,'11111222,11111222,99999999' 
TABS,ioos:station:wmo:42050:1,2009-11-04T14:00:00Z,28.8425,-94.2433,2.0,275.1103226,18.41318006,-99999.0,'11111222,11111222,99999999' 
TABS,ioos:station:wmo:42050:1,2009-11-04T14:30:00Z,28.8425,-94.2433,2.0,281.5580138,25.40512153,-99999.0,'11111222,11111222,99999999' 
TABS,ioos:station:wmo:42050:1,2009-11-04T15:00:00Z,28.8425,-94.2433,2.0,297.1961096,17.87621045,-99999.0,'11111222,11111222,99999999' 
TABS,ioos:station:wmo:42050:1,2009-11-04T15:30:00Z,28.8425,-94.2433,2.0,301.033425,18.42753646,-99999.0,'11111222,11111222,99999999' 
TABS,ioos:station:wmo:42050:1,2009-11-04T16:00:00Z,28.8425,-94.2433,2.0,310.2842918,16.25484851,-99999.0,'11111222,11111222,99999999' 